,,PressureMeas_1m,,PRMeasQMR101_1,,RHStat155_1m_1,,SRMeasQMS101R_1m,,TAStat155_1m_1,,GenWind_1,,GenWind_1,
2019-08-02, 00:00:07,VALID,919.528,VALID,0.0,VALID,96.465,VALID,-0.081,VALID,19.725,INVALID,360.0,VALID,0.0,
2019-08-02, 00:01:07,VALID,919.523,VALID,0.0,VALID,95.998,VALID,-0.094,VALID,19.632,INVALID,360.0,VALID,0.0,
2019-08-02, 00:02:07,VALID,919.513,VALID,0.0,VALID,96.289,VALID,-0.083,VALID,19.614,INVALID,360.0,VALID,0.0,
2019-08-02, 00:03:07,VALID,919.495,VALID,0.0,VALID,97.292,VALID,-0.069,VALID,19.654,INVALID,360.0,VALID,0.0,
2019-08-02, 00:04:07,VALID,919.496,VALID,0.0,VALID,97.805,VALID,-0.016,VALID,19.713,INVALID,360.0,VALID,0.0,
2019-08-02, 00:05:07,VALID,919.497,VALID,0.0,VALID,98.151,VALID,-0.023,VALID,19.744,INVALID,360.0,VALID,0.0,
2019-08-02, 00:06:07,VALID,919.49,VALID,0.0,VALID,98.254,VALID,-0.013,VALID,19.762,INVALID,360.0,VALID,0.0,
2019-08-02, 00:07:07,VALID,919.494,VALID,0.0,VALID,98.318,VALID,-0.01,VALID,19.771,INVALID,360.0,VALID,0.0,
2019-08-02, 00:08:07,VALID,919.473,VALID,0.0,VALID,98.394,VALID,-0.018,VALID,19.79,INVALID,360.0,VALID,0.0,
2019-08-02, 00:09:07,VALID,919.464,VALID,0.0,VALID,98.486,VALID,-0.013,VALID,19.818,INVALID,360.0,VALID,0.0,
2019-08-02, 00:10:07,VALID,919.454,VALID,0.0,VALID,98.378,VALID,-0.003,VALID,19.786,INVALID,360.0,VALID,0.0,
2019-08-02, 00:11:07,VALID,919.426,VALID,0.0,VALID,98.414,VALID,-0.023,VALID,19.792,INVALID,360.0,VALID,0.0,
2019-08-02, 00:12:07,VALID,919.405,VALID,0.0,VALID,98.379,VALID,-0.01,VALID,19.79,INVALID,360.0,VALID,0.0,
2019-08-02, 00:13:07,VALID,919.359,VALID,0.0,VALID,98.276,VALID,-0.011,VALID,19.79,INVALID,360.0,VALID,0.0,
2019-08-02, 00:14:07,VALID,919.315,VALID,0.0,VALID,98.348,VALID,-0.015,VALID,19.787,INVALID,360.0,VALID,0.0,
2019-08-02, 00:15:07,VALID,919.299,VALID,0.0,VALID,98.378,VALID,0.008,VALID,19.779,INVALID,360.0,VALID,0.0,
2019-08-02, 00:16:07,VALID,919.287,VALID,0.0,VALID,98.331,VALID,-0.006,VALID,19.74,INVALID,360.0,VALID,0.0,
2019-08-02, 00:17:07,VALID,919.292,VALID,0.0,VALID,98.318,VALID,-0.004,VALID,19.715,INVALID,360.0,VALID,0.0,
2019-08-02, 00:18:07,VALID,919.289,VALID,0.0,VALID,98.27,VALID,-0.011,VALID,19.671,INVALID,360.0,VALID,0.0,
2019-08-02, 00:19:07,VALID,919.287,VALID,0.0,VALID,98.377,VALID,0.011,VALID,19.689,INVALID,360.0,VALID,0.0,
2019-08-02, 00:20:07,VALID,919.291,VALID,0.0,VALID,98.393,VALID,-0.007,VALID,19.679,INVALID,360.0,VALID,0.0,
2019-08-02, 00:21:07,VALID,919.298,VALID,0.0,VALID,97.941,VALID,-0.004,VALID,19.548,INVALID,360.0,VALID,0.0,
2019-08-02, 00:22:07,VALID,919.297,VALID,0.0,VALID,97.327,VALID,-0.007,VALID,19.445,INVALID,360.0,VALID,0.0,
2019-08-02, 00:23:07,VALID,919.29,VALID,0.0,VALID,97.016,VALID,-0.003,VALID,19.427,INVALID,360.0,VALID,0.0,
2019-08-02, 00:24:07,VALID,919.279,VALID,0.0,VALID,97.065,VALID,-0.005,VALID,19.419,INVALID,360.0,VALID,0.0,
2019-08-02, 00:25:07,VALID,919.253,VALID,0.0,VALID,97.346,VALID,0.006,VALID,19.427,INVALID,360.0,VALID,0.0,
2019-08-02, 00:26:07,VALID,919.219,VALID,0.0,VALID,97.197,VALID,0.007,VALID,19.341,INVALID,360.0,VALID,0.0,
2019-08-02, 00:27:07,VALID,919.186,VALID,0.0,VALID,97.056,VALID,0.004,VALID,19.283,INVALID,360.0,VALID,0.0,
2019-08-02, 00:28:07,VALID,919.154,VALID,0.0,VALID,97.455,VALID,-0.007,VALID,19.315,INVALID,360.0,VALID,0.0,
2019-08-02, 00:29:07,VALID,919.159,VALID,0.0,VALID,97.46,VALID,0.004,VALID,19.237,INVALID,360.0,VALID,0.0,
2019-08-02, 00:30:07,VALID,919.128,VALID,0.0,VALID,97.336,VALID,0.003,VALID,19.204,INVALID,360.0,VALID,0.0,
2019-08-02, 00:31:07,VALID,919.154,VALID,0.0,VALID,97.491,VALID,0.009,VALID,19.203,INVALID,360.0,VALID,0.0,
2019-08-02, 00:32:07,VALID,919.168,VALID,0.0,VALID,97.567,VALID,0.004,VALID,19.205,INVALID,360.0,VALID,0.0,
2019-08-02, 00:33:07,VALID,919.16,VALID,0.0,VALID,97.672,VALID,0.009,VALID,19.213,INVALID,360.0,VALID,0.0,
2019-08-02, 00:34:07,VALID,919.159,VALID,0.0,VALID,98.005,VALID,0.009,VALID,19.328,INVALID,360.0,VALID,0.0,
2019-08-02, 00:35:07,VALID,919.141,VALID,0.0,VALID,98.216,VALID,-0.009,VALID,19.301,INVALID,360.0,VALID,0.0,
2019-08-02, 00:36:07,VALID,919.135,VALID,0.0,VALID,97.894,VALID,0.001,VALID,19.185,INVALID,360.0,VALID,0.0,
2019-08-02, 00:37:07,VALID,919.119,VALID,0.0,VALID,97.979,VALID,-0.014,VALID,19.188,INVALID,360.0,VALID,0.0,
2019-08-02, 00:38:07,VALID,919.104,VALID,0.0,VALID,98.279,VALID,-0.001,VALID,19.254,INVALID,360.0,VALID,0.0,
2019-08-02, 00:39:07,VALID,919.093,VALID,0.0,VALID,98.499,VALID,-0.021,VALID,19.284,INVALID,360.0,VALID,0.0,
2019-08-02, 00:40:07,VALID,919.086,VALID,0.0,VALID,98.631,VALID,-0.012,VALID,19.307,INVALID,360.0,VALID,0.0,
2019-08-02, 00:41:07,VALID,919.05,VALID,0.0,VALID,98.712,VALID,0.003,VALID,19.326,INVALID,360.0,VALID,0.0,
2019-08-02, 00:42:07,VALID,919.029,VALID,0.0,VALID,98.721,VALID,0.011,VALID,19.264,INVALID,360.0,VALID,0.0,
2019-08-02, 00:43:07,VALID,919.0,VALID,0.0,VALID,98.56,VALID,-0.008,VALID,19.152,INVALID,360.0,VALID,0.0,
2019-08-02, 00:44:07,VALID,918.975,VALID,0.0,VALID,98.45,VALID,0.004,VALID,19.093,INVALID,360.0,VALID,0.0,
2019-08-02, 00:45:07,VALID,918.966,VALID,0.0,VALID,98.539,VALID,0.006,VALID,19.119,INVALID,360.0,VALID,0.0,
2019-08-02, 00:46:07,VALID,918.967,VALID,0.0,VALID,98.795,VALID,0.002,VALID,19.213,INVALID,360.0,VALID,0.0,
2019-08-02, 00:47:07,VALID,918.974,VALID,0.0,VALID,98.915,VALID,-0.018,VALID,19.238,INVALID,360.0,VALID,0.0,
2019-08-02, 00:48:07,VALID,918.973,VALID,0.0,VALID,99.054,VALID,-0.03,VALID,19.3,INVALID,360.0,VALID,0.0,
2019-08-02, 00:49:07,VALID,918.97,VALID,0.0,VALID,99.072,VALID,-0.088,VALID,19.305,INVALID,360.0,VALID,0.0,
2019-08-02, 00:50:07,VALID,918.96,VALID,0.0,VALID,99.098,VALID,-0.084,VALID,19.28,INVALID,360.0,VALID,0.0,
2019-08-02, 00:51:07,VALID,918.945,VALID,0.0,VALID,99.129,VALID,-0.064,VALID,19.269,INVALID,360.0,VALID,0.0,
2019-08-02, 00:52:07,VALID,918.931,VALID,0.0,VALID,99.138,VALID,-0.08,VALID,19.26,INVALID,360.0,VALID,0.0,
2019-08-02, 00:53:07,VALID,918.894,VALID,0.0,VALID,99.115,VALID,-0.093,VALID,19.197,INVALID,360.0,VALID,0.0,
2019-08-02, 00:54:07,VALID,918.894,VALID,0.0,VALID,99.134,VALID,-0.07,VALID,19.177,INVALID,360.0,VALID,0.0,
2019-08-02, 00:55:07,VALID,918.864,VALID,0.0,VALID,99.16,VALID,-0.075,VALID,19.199,INVALID,360.0,VALID,0.0,
2019-08-02, 00:56:07,VALID,918.883,VALID,0.0,VALID,99.203,VALID,-0.078,VALID,19.226,INVALID,360.0,VALID,0.0,
2019-08-02, 00:57:07,VALID,918.873,VALID,0.0,VALID,99.236,VALID,-0.09,VALID,19.261,INVALID,360.0,VALID,0.0,
2019-08-02, 00:58:07,VALID,918.882,VALID,0.0,VALID,99.306,VALID,-0.1,VALID,19.339,INVALID,360.0,VALID,0.0,
2019-08-02, 00:59:07,VALID,918.861,VALID,0.0,VALID,99.316,VALID,-0.089,VALID,19.387,INVALID,360.0,VALID,0.0,
2019-08-02, 01:00:07,VALID,918.872,VALID,0.0,VALID,99.347,VALID,-0.077,VALID,19.437,INVALID,360.0,VALID,0.0,
2019-08-02, 01:01:07,VALID,918.873,VALID,0.0,VALID,99.343,VALID,-0.084,VALID,19.451,INVALID,360.0,VALID,0.0,
2019-08-02, 01:02:07,VALID,918.871,VALID,0.0,VALID,99.277,VALID,-0.075,VALID,19.364,INVALID,360.0,VALID,0.0,
2019-08-02, 01:03:07,VALID,918.841,VALID,0.0,VALID,99.326,VALID,-0.068,VALID,19.408,INVALID,360.0,VALID,0.0,
2019-08-02, 01:04:07,VALID,918.819,VALID,0.0,VALID,99.34,VALID,-0.018,VALID,19.482,INVALID,360.0,VALID,0.0,
2019-08-02, 01:05:07,VALID,918.784,VALID,0.0,VALID,99.344,VALID,-0.009,VALID,19.525,INVALID,360.0,VALID,0.0,
2019-08-02, 01:06:07,VALID,918.765,VALID,0.0,VALID,99.356,VALID,-0.022,VALID,19.57,INVALID,360.0,VALID,0.0,
2019-08-02, 01:07:07,VALID,918.74,VALID,0.0,VALID,99.369,VALID,-0.028,VALID,19.601,INVALID,360.0,VALID,0.0,
2019-08-02, 01:08:07,VALID,918.728,VALID,0.0,VALID,99.359,VALID,-0.029,VALID,19.632,INVALID,360.0,VALID,0.0,
2019-08-02, 01:09:07,VALID,918.716,VALID,0.0,VALID,99.342,VALID,-0.037,VALID,19.615,INVALID,360.0,VALID,0.0,
2019-08-02, 01:10:07,VALID,918.72,VALID,0.0,VALID,99.299,VALID,-0.027,VALID,19.598,INVALID,360.0,VALID,0.0,
2019-08-02, 01:11:07,VALID,918.735,VALID,0.0,VALID,99.285,VALID,-0.031,VALID,19.593,INVALID,360.0,VALID,0.0,
2019-08-02, 01:12:07,VALID,918.735,VALID,0.0,VALID,99.29,VALID,-0.014,VALID,19.602,INVALID,360.0,VALID,0.0,
2019-08-02, 01:13:07,VALID,918.741,VALID,0.0,VALID,99.232,VALID,-0.002,VALID,19.595,INVALID,360.0,VALID,0.0,
2019-08-02, 01:14:07,VALID,918.734,VALID,0.0,VALID,99.217,VALID,-0.012,VALID,19.57,INVALID,360.0,VALID,0.0,
2019-08-02, 01:15:07,VALID,918.731,VALID,0.0,VALID,99.169,VALID,-0.0,VALID,19.541,INVALID,360.0,VALID,0.0,
2019-08-02, 01:16:07,VALID,918.756,VALID,0.0,VALID,99.089,VALID,0.004,VALID,19.498,INVALID,360.0,VALID,0.0,
2019-08-02, 01:17:07,VALID,918.726,VALID,0.0,VALID,99.033,VALID,-0.013,VALID,19.478,INVALID,360.0,VALID,0.0,
2019-08-02, 01:18:07,VALID,918.744,VALID,0.0,VALID,98.985,VALID,0.002,VALID,19.467,INVALID,360.0,VALID,0.0,
2019-08-02, 01:19:07,VALID,918.756,VALID,0.0,VALID,98.972,VALID,0.001,VALID,19.469,INVALID,360.0,VALID,0.0,
2019-08-02, 01:20:07,VALID,918.728,VALID,0.0,VALID,98.908,VALID,0.021,VALID,19.454,INVALID,360.0,VALID,0.0,
2019-08-02, 01:21:07,VALID,918.718,VALID,0.0,VALID,98.865,VALID,-0.0,VALID,19.453,INVALID,360.0,VALID,0.0,
2019-08-02, 01:22:07,VALID,918.717,VALID,0.0,VALID,98.796,VALID,0.026,VALID,19.431,INVALID,360.0,VALID,0.0,
2019-08-02, 01:23:07,VALID,918.726,VALID,0.0,VALID,98.698,VALID,0.017,VALID,19.407,INVALID,360.0,VALID,0.0,
2019-08-02, 01:24:07,VALID,918.738,VALID,0.0,VALID,98.665,VALID,0.012,VALID,19.406,INVALID,360.0,VALID,0.0,
2019-08-02, 01:25:07,VALID,918.74,VALID,0.0,VALID,98.725,VALID,0.015,VALID,19.431,INVALID,360.0,VALID,0.0,
2019-08-02, 01:26:07,VALID,918.745,VALID,0.0,VALID,98.774,VALID,0.009,VALID,19.444,INVALID,360.0,VALID,0.0,
2019-08-02, 01:27:07,VALID,918.74,VALID,0.0,VALID,98.795,VALID,0.011,VALID,19.445,INVALID,360.0,VALID,0.0,
2019-08-02, 01:28:07,VALID,918.732,VALID,0.0,VALID,98.783,VALID,0.021,VALID,19.434,INVALID,360.0,VALID,0.0,
2019-08-02, 01:29:07,VALID,918.73,VALID,0.0,VALID,98.79,VALID,0.016,VALID,19.416,INVALID,360.0,VALID,0.0,
2019-08-02, 01:30:07,VALID,918.718,VALID,0.0,VALID,98.745,VALID,-0.011,VALID,19.387,INVALID,360.0,VALID,0.0,
2019-08-02, 01:31:07,VALID,918.705,VALID,0.0,VALID,98.587,VALID,0.014,VALID,19.331,INVALID,360.0,VALID,0.0,
2019-08-02, 01:32:07,VALID,918.726,VALID,0.0,VALID,98.451,VALID,0.019,VALID,19.315,INVALID,360.0,VALID,0.0,
2019-08-02, 01:33:07,VALID,918.74,VALID,0.0,VALID,98.404,VALID,0.002,VALID,19.362,INVALID,360.0,VALID,0.0,
2019-08-02, 01:34:07,VALID,918.75,VALID,0.0,VALID,98.438,VALID,0.009,VALID,19.45,INVALID,360.0,VALID,0.0,
2019-08-02, 01:35:07,VALID,918.768,VALID,0.0,VALID,98.347,VALID,0.0,VALID,19.475,INVALID,360.0,VALID,0.0,
2019-08-02, 01:36:07,VALID,918.74,VALID,0.0,VALID,97.981,VALID,0.007,VALID,19.393,INVALID,360.0,VALID,0.0,
2019-08-02, 01:37:06,VALID,918.729,VALID,0.0,VALID,97.773,VALID,0.011,VALID,19.315,INVALID,360.0,VALID,0.0,
2019-08-02, 01:38:06,VALID,918.712,VALID,0.0,VALID,97.833,VALID,0.007,VALID,19.294,INVALID,360.0,VALID,0.0,
2019-08-02, 01:39:06,VALID,918.708,VALID,0.0,VALID,97.982,VALID,0.018,VALID,19.3,INVALID,360.0,VALID,0.0,
2019-08-02, 01:40:06,VALID,918.704,VALID,0.0,VALID,98.124,VALID,0.005,VALID,19.314,INVALID,360.0,VALID,0.0,
2019-08-02, 01:41:06,VALID,918.716,VALID,0.0,VALID,98.257,VALID,0.001,VALID,19.334,INVALID,360.0,VALID,0.0,
2019-08-02, 01:42:06,VALID,918.729,VALID,0.0,VALID,98.301,VALID,-0.003,VALID,19.34,INVALID,360.0,VALID,0.0,
2019-08-02, 01:43:06,VALID,918.747,VALID,0.0,VALID,98.351,VALID,-0.01,VALID,19.333,INVALID,360.0,VALID,0.0,
2019-08-02, 01:44:06,VALID,918.737,VALID,0.0,VALID,98.381,VALID,0.0,VALID,19.284,INVALID,360.0,VALID,0.0,
2019-08-02, 01:45:06,VALID,918.742,VALID,0.0,VALID,98.099,VALID,0.007,VALID,19.167,INVALID,360.0,VALID,0.0,
2019-08-02, 01:46:06,VALID,918.716,VALID,0.0,VALID,97.882,VALID,0.012,VALID,19.126,INVALID,360.0,VALID,0.0,
2019-08-02, 01:47:06,VALID,918.688,VALID,0.0,VALID,98.083,VALID,0.025,VALID,19.17,INVALID,360.0,VALID,0.0,
2019-08-02, 01:48:06,VALID,918.661,VALID,0.0,VALID,98.206,VALID,0.026,VALID,19.163,INVALID,360.0,VALID,0.0,
2019-08-02, 01:49:06,VALID,918.652,VALID,0.0,VALID,98.166,VALID,0.05,VALID,19.131,INVALID,360.0,VALID,0.0,
2019-08-02, 01:50:06,VALID,918.654,VALID,0.0,VALID,98.175,VALID,0.041,VALID,19.085,INVALID,360.0,VALID,0.0,
2019-08-02, 01:51:06,VALID,918.668,VALID,0.0,VALID,98.068,VALID,0.024,VALID,19.04,INVALID,360.0,VALID,0.0,
2019-08-02, 01:52:06,VALID,918.681,VALID,0.0,VALID,98.276,VALID,0.053,VALID,19.066,INVALID,360.0,VALID,0.0,
2019-08-02, 01:53:06,VALID,918.666,VALID,0.0,VALID,98.393,VALID,0.046,VALID,19.051,INVALID,360.0,VALID,0.0,
2019-08-02, 01:54:06,VALID,918.649,VALID,0.0,VALID,98.39,VALID,0.049,VALID,19.006,INVALID,360.0,VALID,0.0,
2019-08-02, 01:55:06,VALID,918.629,VALID,0.0,VALID,98.396,VALID,0.044,VALID,18.959,INVALID,360.0,VALID,0.0,
2019-08-02, 01:56:06,VALID,918.596,VALID,0.0,VALID,98.315,VALID,0.047,VALID,18.899,INVALID,360.0,VALID,0.0,
2019-08-02, 01:57:06,VALID,918.585,VALID,0.0,VALID,98.279,VALID,0.043,VALID,18.85,INVALID,360.0,VALID,0.0,
2019-08-02, 01:58:06,VALID,918.586,VALID,0.0,VALID,98.192,VALID,0.045,VALID,18.784,INVALID,360.0,VALID,0.0,
2019-08-02, 01:59:06,VALID,918.561,VALID,0.0,VALID,98.169,VALID,0.051,VALID,18.746,INVALID,360.0,VALID,0.0,
2019-08-02, 02:00:06,VALID,918.565,VALID,0.0,VALID,98.242,VALID,0.056,VALID,18.75,INVALID,360.0,VALID,0.0,
2019-08-02, 02:01:06,VALID,918.57,VALID,0.0,VALID,98.451,VALID,0.055,VALID,18.779,INVALID,360.0,VALID,0.0,
2019-08-02, 02:02:06,VALID,918.553,VALID,0.0,VALID,98.575,VALID,0.054,VALID,18.77,INVALID,360.0,VALID,0.0,
2019-08-02, 02:03:06,VALID,918.537,VALID,0.0,VALID,98.681,VALID,0.024,VALID,18.763,INVALID,360.0,VALID,0.0,
2019-08-02, 02:04:06,VALID,918.496,VALID,0.0,VALID,98.815,VALID,-0.005,VALID,18.761,INVALID,360.0,VALID,0.0,
2019-08-02, 02:05:06,VALID,918.508,VALID,0.0,VALID,98.882,VALID,-0.01,VALID,18.723,INVALID,360.0,VALID,0.0,
2019-08-02, 02:06:06,VALID,918.519,VALID,0.0,VALID,98.878,VALID,-0.014,VALID,18.636,INVALID,360.0,VALID,0.0,
2019-08-02, 02:07:06,VALID,918.534,VALID,0.0,VALID,98.77,VALID,-0.021,VALID,18.556,INVALID,360.0,VALID,0.0,
2019-08-02, 02:08:06,VALID,918.538,VALID,0.0,VALID,98.811,VALID,-0.011,VALID,18.555,INVALID,360.0,VALID,0.0,
2019-08-02, 02:09:06,VALID,918.529,VALID,0.0,VALID,98.881,VALID,-0.023,VALID,18.56,INVALID,360.0,VALID,0.0,
2019-08-02, 02:10:06,VALID,918.511,VALID,0.0,VALID,98.95,VALID,-0.006,VALID,18.55,INVALID,360.0,VALID,0.0,
2019-08-02, 02:11:06,VALID,918.486,VALID,0.0,VALID,98.984,VALID,-0.016,VALID,18.556,INVALID,360.0,VALID,0.0,
2019-08-02, 02:12:06,VALID,918.431,VALID,0.0,VALID,99.061,VALID,0.01,VALID,18.548,INVALID,360.0,VALID,0.0,
2019-08-02, 02:13:06,VALID,918.422,VALID,0.0,VALID,99.085,VALID,-0.008,VALID,18.516,INVALID,360.0,VALID,0.0,
2019-08-02, 02:14:06,VALID,918.422,VALID,0.0,VALID,99.093,VALID,-0.024,VALID,18.491,INVALID,360.0,VALID,0.0,
2019-08-02, 02:15:06,VALID,918.421,VALID,0.0,VALID,99.17,VALID,-0.012,VALID,18.54,INVALID,360.0,VALID,0.0,
2019-08-02, 02:16:06,VALID,918.438,VALID,0.0,VALID,99.298,VALID,-0.019,VALID,18.701,INVALID,360.0,VALID,0.0,
2019-08-02, 02:17:06,VALID,918.452,VALID,0.0,VALID,99.323,VALID,-0.021,VALID,18.725,INVALID,360.0,VALID,0.0,
2019-08-02, 02:18:06,VALID,918.458,VALID,0.0,VALID,99.346,VALID,-0.017,VALID,18.733,INVALID,360.0,VALID,0.0,
2019-08-02, 02:19:06,VALID,918.469,VALID,0.0,VALID,99.376,VALID,0.008,VALID,18.777,INVALID,360.0,VALID,0.0,
2019-08-02, 02:20:06,VALID,918.463,VALID,0.0,VALID,99.427,VALID,0.024,VALID,18.858,INVALID,360.0,VALID,0.0,
2019-08-02, 02:21:06,VALID,918.456,VALID,0.0,VALID,99.465,VALID,0.024,VALID,18.916,INVALID,360.0,VALID,0.0,
2019-08-02, 02:22:06,VALID,918.448,VALID,0.0,VALID,99.445,VALID,0.022,VALID,18.878,INVALID,360.0,VALID,0.0,
2019-08-02, 02:23:06,VALID,918.443,VALID,0.0,VALID,99.391,VALID,0.017,VALID,18.768,INVALID,360.0,VALID,0.0,
2019-08-02, 02:24:06,VALID,918.409,VALID,0.0,VALID,99.371,VALID,0.025,VALID,18.68,INVALID,360.0,VALID,0.0,
2019-08-02, 02:25:06,VALID,918.426,VALID,0.0,VALID,99.379,VALID,0.013,VALID,18.657,INVALID,360.0,VALID,0.0,
2019-08-02, 02:26:06,VALID,918.426,VALID,0.0,VALID,99.407,VALID,0.034,VALID,18.655,INVALID,360.0,VALID,0.0,
2019-08-02, 02:27:06,VALID,918.438,VALID,0.0,VALID,99.438,VALID,0.006,VALID,18.678,INVALID,360.0,VALID,0.0,
2019-08-02, 02:28:06,VALID,918.433,VALID,0.0,VALID,99.464,VALID,0.034,VALID,18.77,INVALID,360.0,VALID,0.0,
2019-08-02, 02:29:06,VALID,918.447,VALID,0.0,VALID,99.503,VALID,0.032,VALID,18.791,INVALID,360.0,VALID,0.0,
2019-08-02, 02:30:06,VALID,918.446,VALID,0.0,VALID,99.495,VALID,0.007,VALID,18.807,INVALID,360.0,VALID,0.0,
2019-08-02, 02:31:06,VALID,918.438,VALID,0.0,VALID,99.485,VALID,0.009,VALID,18.807,INVALID,360.0,VALID,0.0,
2019-08-02, 02:32:06,VALID,918.44,VALID,0.0,VALID,99.485,VALID,0.005,VALID,18.804,INVALID,360.0,VALID,0.0,
2019-08-02, 02:33:06,VALID,918.42,VALID,0.0,VALID,99.472,VALID,-0.0,VALID,18.712,INVALID,360.0,VALID,0.0,
2019-08-02, 02:34:06,VALID,918.414,VALID,0.0,VALID,99.441,VALID,-0.016,VALID,18.578,INVALID,360.0,VALID,0.0,
2019-08-02, 02:35:06,VALID,918.403,VALID,0.0,VALID,99.433,VALID,-0.002,VALID,18.594,INVALID,360.0,VALID,0.0,
2019-08-02, 02:36:06,VALID,918.377,VALID,0.0,VALID,99.471,VALID,-0.0,VALID,18.658,INVALID,360.0,VALID,0.0,
2019-08-02, 02:37:06,VALID,918.361,VALID,0.0,VALID,99.515,VALID,-0.012,VALID,18.69,INVALID,360.0,VALID,0.0,
2019-08-02, 02:38:06,VALID,918.336,VALID,0.0,VALID,99.515,VALID,-0.002,VALID,18.699,INVALID,360.0,VALID,0.0,
2019-08-02, 02:39:06,VALID,918.328,VALID,0.0,VALID,99.504,VALID,-0.002,VALID,18.66,INVALID,360.0,VALID,0.0,
2019-08-02, 02:40:06,VALID,918.326,VALID,0.0,VALID,99.468,VALID,-0.016,VALID,18.573,INVALID,360.0,VALID,0.0,
2019-08-02, 02:41:06,VALID,918.338,VALID,0.0,VALID,99.467,VALID,-0.008,VALID,18.54,INVALID,360.0,VALID,0.0,
2019-08-02, 02:42:06,VALID,918.349,VALID,0.0,VALID,99.474,VALID,-0.016,VALID,18.5,INVALID,360.0,VALID,0.0,
2019-08-02, 02:43:06,VALID,918.355,VALID,0.0,VALID,99.46,VALID,-0.016,VALID,18.488,INVALID,360.0,VALID,0.0,
2019-08-02, 02:44:06,VALID,918.364,VALID,0.0,VALID,99.46,VALID,-0.014,VALID,18.427,INVALID,360.0,VALID,0.0,
2019-08-02, 02:45:06,VALID,918.358,VALID,0.0,VALID,99.447,VALID,-0.012,VALID,18.329,INVALID,360.0,VALID,0.0,
2019-08-02, 02:46:06,VALID,918.334,VALID,0.0,VALID,99.44,VALID,-0.015,VALID,18.321,INVALID,360.0,VALID,0.0,
2019-08-02, 02:47:06,VALID,918.309,VALID,0.0,VALID,99.467,VALID,-0.013,VALID,18.386,INVALID,360.0,VALID,0.0,
2019-08-02, 02:48:06,VALID,918.302,VALID,0.0,VALID,99.501,VALID,-0.016,VALID,18.449,INVALID,360.0,VALID,0.0,
2019-08-02, 02:49:06,VALID,918.31,VALID,0.0,VALID,99.532,VALID,0.001,VALID,18.502,INVALID,360.0,VALID,0.0,
2019-08-02, 02:50:06,VALID,918.316,VALID,0.0,VALID,99.536,VALID,-0.002,VALID,18.568,INVALID,360.0,VALID,0.0,
2019-08-02, 02:51:06,VALID,918.32,VALID,0.0,VALID,99.551,VALID,0.011,VALID,18.561,INVALID,360.0,VALID,0.0,
2019-08-02, 02:52:06,VALID,918.334,VALID,0.0,VALID,99.548,VALID,-0.001,VALID,18.568,INVALID,360.0,VALID,0.0,
2019-08-02, 02:53:06,VALID,918.332,VALID,0.0,VALID,99.546,VALID,-0.012,VALID,18.586,INVALID,360.0,VALID,0.0,
2019-08-02, 02:54:06,VALID,918.334,VALID,0.0,VALID,99.573,VALID,0.004,VALID,18.628,INVALID,360.0,VALID,0.0,
2019-08-02, 02:55:06,VALID,918.319,VALID,0.0,VALID,99.58,VALID,0.005,VALID,18.663,INVALID,360.0,VALID,0.0,
2019-08-02, 02:56:06,VALID,918.306,VALID,0.0,VALID,99.601,VALID,-0.01,VALID,18.714,INVALID,360.0,VALID,0.0,
2019-08-02, 02:57:06,VALID,918.28,VALID,0.0,VALID,99.629,VALID,0.001,VALID,18.767,INVALID,360.0,VALID,0.0,
2019-08-02, 02:58:06,VALID,918.284,VALID,0.0,VALID,99.613,VALID,0.013,VALID,18.8,INVALID,360.0,VALID,0.0,
2019-08-02, 02:59:06,VALID,918.273,VALID,0.0,VALID,99.635,VALID,0.01,VALID,18.864,INVALID,360.0,VALID,0.0,
2019-08-02, 03:00:06,VALID,918.277,VALID,0.0,VALID,99.628,VALID,-0.008,VALID,18.846,INVALID,360.0,VALID,0.0,
2019-08-02, 03:01:06,VALID,918.283,VALID,0.0,VALID,99.613,VALID,0.012,VALID,18.79,INVALID,360.0,VALID,0.0,
2019-08-02, 03:02:06,VALID,918.284,VALID,0.0,VALID,99.624,VALID,-0.003,VALID,18.78,INVALID,360.0,VALID,0.0,
2019-08-02, 03:03:06,VALID,918.296,VALID,0.0,VALID,99.628,VALID,-0.02,VALID,18.807,INVALID,360.0,VALID,0.0,
2019-08-02, 03:04:06,VALID,918.304,VALID,0.0,VALID,99.625,VALID,0.005,VALID,18.818,INVALID,360.0,VALID,0.0,
2019-08-02, 03:05:06,VALID,918.295,VALID,0.0,VALID,99.649,VALID,-0.011,VALID,18.84,INVALID,360.0,VALID,0.0,
2019-08-02, 03:06:06,VALID,918.298,VALID,0.0,VALID,99.64,VALID,0.001,VALID,18.851,INVALID,360.0,VALID,0.0,
2019-08-02, 03:07:06,VALID,918.332,VALID,0.0,VALID,99.655,VALID,0.005,VALID,18.876,INVALID,360.0,VALID,0.0,
2019-08-02, 03:08:06,VALID,918.339,VALID,0.0,VALID,99.648,VALID,0.013,VALID,18.855,INVALID,360.0,VALID,0.0,
2019-08-02, 03:09:06,VALID,918.325,VALID,0.0,VALID,99.65,VALID,0.009,VALID,18.857,INVALID,360.0,VALID,0.0,
2019-08-02, 03:10:06,VALID,918.294,VALID,0.0,VALID,99.638,VALID,0.009,VALID,18.864,INVALID,360.0,VALID,0.0,
2019-08-02, 03:11:06,VALID,918.284,VALID,0.0,VALID,99.637,VALID,-0.004,VALID,18.876,INVALID,360.0,VALID,0.0,
2019-08-02, 03:12:06,VALID,918.252,VALID,0.0,VALID,99.634,VALID,0.001,VALID,18.835,INVALID,360.0,VALID,0.0,
2019-08-02, 03:13:06,VALID,918.24,VALID,0.0,VALID,99.641,VALID,0.005,VALID,18.853,INVALID,360.0,VALID,0.0,
2019-08-02, 03:14:06,VALID,918.238,VALID,0.0,VALID,99.631,VALID,-0.001,VALID,18.851,INVALID,360.0,VALID,0.0,
2019-08-02, 03:15:06,VALID,918.257,VALID,0.0,VALID,99.64,VALID,0.002,VALID,18.855,INVALID,360.0,VALID,0.0,
2019-08-02, 03:16:06,VALID,918.266,VALID,0.0,VALID,99.669,VALID,0.004,VALID,18.86,INVALID,360.0,VALID,0.0,
2019-08-02, 03:17:06,VALID,918.292,VALID,0.0,VALID,99.647,VALID,-0.005,VALID,18.861,INVALID,360.0,VALID,0.0,
2019-08-02, 03:18:06,VALID,918.304,VALID,0.0,VALID,99.662,VALID,-0.0,VALID,18.853,INVALID,360.0,VALID,0.0,
2019-08-02, 03:19:06,VALID,918.302,VALID,0.0,VALID,99.654,VALID,0.019,VALID,18.849,INVALID,360.0,VALID,0.0,
2019-08-02, 03:20:06,VALID,918.303,VALID,0.0,VALID,99.67,VALID,0.01,VALID,18.856,INVALID,360.0,VALID,0.0,
2019-08-02, 03:21:06,VALID,918.288,VALID,0.0,VALID,99.658,VALID,0.0,VALID,18.849,INVALID,360.0,VALID,0.0,
2019-08-02, 03:22:06,VALID,918.287,VALID,0.0,VALID,99.656,VALID,0.021,VALID,18.816,INVALID,360.0,VALID,0.0,
2019-08-02, 03:23:06,VALID,918.277,VALID,0.0,VALID,99.648,VALID,0.025,VALID,18.777,INVALID,360.0,VALID,0.0,
2019-08-02, 03:24:06,VALID,918.26,VALID,0.0,VALID,99.647,VALID,0.007,VALID,18.739,INVALID,360.0,VALID,0.0,
2019-08-02, 03:25:06,VALID,918.273,VALID,0.0,VALID,99.654,VALID,-0.007,VALID,18.749,INVALID,360.0,VALID,0.0,
2019-08-02, 03:26:06,VALID,918.269,VALID,0.0,VALID,99.667,VALID,0.017,VALID,18.75,INVALID,360.0,VALID,0.0,
2019-08-02, 03:27:06,VALID,918.265,VALID,0.0,VALID,99.653,VALID,0.02,VALID,18.745,INVALID,360.0,VALID,0.0,
2019-08-02, 03:28:06,VALID,918.246,VALID,0.0,VALID,99.659,VALID,0.028,VALID,18.715,INVALID,360.0,VALID,0.0,
2019-08-02, 03:29:06,VALID,918.245,VALID,0.0,VALID,99.655,VALID,0.025,VALID,18.707,INVALID,360.0,VALID,0.0,
2019-08-02, 03:30:06,VALID,918.22,VALID,0.0,VALID,99.658,VALID,0.012,VALID,18.722,INVALID,360.0,VALID,0.0,
2019-08-02, 03:31:06,VALID,918.206,VALID,0.0,VALID,99.684,VALID,0.01,VALID,18.733,INVALID,360.0,VALID,0.0,
2019-08-02, 03:32:06,VALID,918.194,VALID,0.0,VALID,99.673,VALID,0.004,VALID,18.718,INVALID,360.0,VALID,0.0,
2019-08-02, 03:33:06,VALID,918.194,VALID,0.0,VALID,99.671,VALID,0.006,VALID,18.699,INVALID,360.0,VALID,0.0,
2019-08-02, 03:34:06,VALID,918.192,VALID,0.0,VALID,99.668,VALID,0.005,VALID,18.696,INVALID,360.0,VALID,0.0,
2019-08-02, 03:35:06,VALID,918.211,VALID,0.0,VALID,99.663,VALID,-0.007,VALID,18.71,INVALID,360.0,VALID,0.0,
2019-08-02, 03:36:06,VALID,918.222,VALID,0.0,VALID,99.673,VALID,0.005,VALID,18.722,INVALID,360.0,VALID,0.0,
2019-08-02, 03:37:06,VALID,918.233,VALID,0.0,VALID,99.679,VALID,-0.002,VALID,18.69,INVALID,360.0,VALID,0.0,
2019-08-02, 03:38:06,VALID,918.241,VALID,0.0,VALID,99.666,VALID,0.011,VALID,18.672,INVALID,360.0,VALID,0.0,